User: anonymous   Login
Location: Unspecified
(0.0000°N, 0.0000°E)
Time: 21:17:16
(UTC+00:00)
Language:

Quakesat - Orbit

View from above orbital plane
View from above orbital plane
View from above satellite
View from above satellite

Ground track
Ground track

The orbit data is extracted from the following two-line orbital elements,

1 27845U 03031F   17141.91629973 +.00000102 +00000-0 +65755-4 0  9998
2 27845 098.6946 152.3899 0010196 086.8597 273.3747 14.22020316720437
Epoch (UTC): 21 May 2017 21:59:28
Eccentricity: 0.0010196
inclination: 98.6946°
perigee height: 811 km
apogee height: 826 km
right ascension of ascending node: 152.3899°
argument of perigee: 86.8597°
revolutions per day: 14.22020316
mean anomaly at epoch: 273.3747°
orbit number at epoch: 72043

The dashed part of the orbit path shows where the satellite is in the earth's shadow,  

DLR